Terminal Aerodrome Forecast
Issued by NWS

Home | Current Version | Previous Version | Text Only | Print | Product List | Glossary On
Versions: 1 2 3 4 5 6 7 8 9 10 11 12 13 14 15 16 17 18 19 20 21 22 23 24 25 26 27 28 29 30 31 32 33 34 35 36 37 38 39 40 41 42 43
000
FTUS43 KDDC 152335
TAFGCK
TAF
KGCK 152335Z 1600/1706 04010KT P6SM BKN015 OVC040
     FM160900 VRB05KT 1SM BR OVC002
     FM161600 16011KT P6SM BKN007=

USA.gov is the U.S. government's official web portal to all federal, state and local government web resources and services.